When you browse on this site, cookies collect data to enhance your experience and personalize the content and advertising you see.
Visit our Privacy Policy to learn more. By continuing to use the site, you agree to this use of cookies and data.
  • In Netherlands
  • List of Countries
  • For 7 days
  • Water Temperature
  • Satellite Maps
  • Weather Map
  • Weather Widgets
  • user-avatar
    Login

    Hourly Weather Cobija

    Today, 17 July, Wednesday

    Time Temperature Precipitation Wind Pressure Humidity
    00:00 +22°C° 0.4 mm 1 mps 741 mmHg 95%
    01:00 +22°C° 0 mm 1 mps 741 mmHg 94%
    02:00 +22°C° 0.4 mm 1 mps 741 mmHg 95%
    03:00 +21°C° 0.4 mm 1 mps 741 mmHg 96%
    04:00 +21°C° 0.4 mm 1 mps 741 mmHg 97%
    05:00 +21°C° 0 mm 1 mps 741 mmHg 97%
    06:00 +21°C° 0 mm 1 mps 742 mmHg 96%
    07:00 +21°C° 0 mm 1 mps 742 mmHg 96%
    08:00 +23°C° 0 mm 1 mps 742 mmHg 87%
    09:00 +25°C° 0 mm 1 mps 743 mmHg 78%
    10:00 +27°C° 0 mm 1 mps 743 mmHg 69%
    11:00 +29°C° 0 mm 1 mps 742 mmHg 62%
    12:00 +30°C° 0 mm 1 mps 741 mmHg 56%
    13:00 +32°C° 0 mm 1 mps 741 mmHg 50%
    14:00 +32°C° 0 mm 1 mps 740 mmHg 51%
    15:00 +32°C° 0 mm 1 mps 739 mmHg 51%
    16:00 +30°C° 0 mm 0 mps 739 mmHg 52%
    17:00 +30°C° 0 mm 1 mps 739 mmHg 58%
    18:00 +28°C° 0 mm 1 mps 739 mmHg 64%
    19:00 +26°C° 0 mm 1 mps 740 mmHg 69%
    20:00 +26°C° 0 mm 1 mps 740 mmHg 72%
    21:00 +25°C° 0 mm 1 mps 740 mmHg 74%
    22:00 +25°C° 0 mm 1 mps 740 mmHg 77%
    23:00 +24°C° 0 mm 1 mps 740 mmHg 81%

    Tomorrow, 18 July, Thursday

    Time Temperature Precipitation Wind Pressure Humidity
    00:00 +23°C° 0 mm 1 mps 740 mmHg 85%
    01:00 +23°C° 0 mm 1 mps 740 mmHg 89%
    02:00 +23°C° 0 mm 1 mps 740 mmHg 91%
    03:00 +22°C° 0 mm 1 mps 740 mmHg 93%
    04:00 +20°C° 0 mm 0 mps 740 mmHg 96%
    05:00 +21°C° 0 mm 0 mps 740 mmHg 93%
    06:00 +21°C° 0 mm 0 mps 741 mmHg 90%
    07:00 +22°C° 0 mm 0 mps 741 mmHg 87%
    08:00 +27°C° 0 mm 1 mps 742 mmHg 74%
    09:00 +30°C° 0 mm 1 mps 742 mmHg 62%
    10:00 +33°C° 0 mm 1 mps 742 mmHg 50%
    11:00 +34°C° 0 mm 1 mps 741 mmHg 45%
    12:00 +35°C° 0 mm 1 mps 741 mmHg 40%
    13:00 +36°C° 0 mm 1 mps 740 mmHg 35%
    14:00 +33°C° 0 mm 0 mps 739 mmHg 39%
    15:00 +32°C° 0 mm 0 mps 738 mmHg 43%
    16:00 +31°C° 0 mm 0 mps 738 mmHg 48%
    17:00 +29°C° 0 mm 0 mps 738 mmHg 51%
    18:00 +28°C° 0 mm 0 mps 738 mmHg 54%
    19:00 +26°C° 0 mm 0 mps 738 mmHg 57%
    20:00 +26°C° 0 mm 0 mps 739 mmHg 58%
    21:00 +26°C° 0 mm 0 mps 739 mmHg 59%
    22:00 +26°C° 0 mm 0 mps 739 mmHg 60%
    23:00 +25°C° 0 mm 0 mps 739 mmHg 62%

    Day after tomorrow, 19 July, Friday

    Time Temperature Precipitation Wind Pressure Humidity
    00:00 +25°C° 0 mm 0 mps 739 mmHg 63%
    01:00 +25°C° 0 mm 0 mps 739 mmHg 65%
    02:00 +24°C° 0 mm 0 mps 739 mmHg 67%
    03:00 +24°C° 0 mm 0 mps 739 mmHg 69%
    04:00 +24°C° 0 mm 0 mps 739 mmHg 71%
    05:00 +24°C° 0 mm 0 mps 739 mmHg 73%
    06:00 +24°C° 0 mm 0 mps 740 mmHg 74%
    07:00 +24°C° 0 mm 0 mps 740 mmHg 75%
    08:00 +27°C° 0 mm 0 mps 740 mmHg 65%
    09:00 +29°C° 0 mm 0 mps 741 mmHg 55%
    10:00 +34°C° 0 mm 1 mps 741 mmHg 45%
    11:00 +35°C° 0 mm 1 mps 740 mmHg 42%
    12:00 +35°C° 0 mm 1 mps 739 mmHg 40%
    13:00 +35°C° 0 mm 1 mps 739 mmHg 37%
    14:00 +33°C° 0 mm 0 mps 738 mmHg 38%
    15:00 +33°C° 0 mm 0 mps 737 mmHg 38%
    16:00 +33°C° 0 mm 0 mps 736 mmHg 38%
    17:00 +30°C° 0 mm 0 mps 737 mmHg 44%
    18:00 +28°C° 0 mm 0 mps 737 mmHg 50%
    19:00 +26°C° 0 mm 0 mps 737 mmHg 56%
    20:00 +25°C° 0 mm 0 mps 738 mmHg 58%
    21:00 +25°C° 0 mm 0 mps 738 mmHg 60%
    22:00 +24°C° 0 mm 0 mps 738 mmHg 62%
    23:00 +24°C° 0 mm 0 mps 738 mmHg 66%

    20 July, Saturday

    Time Temperature Precipitation Wind Pressure Humidity
    00:00 +23°C° 0 mm 0 mps 738 mmHg 69%
    01:00 +22°C° 0 mm 0 mps 738 mmHg 73%
    02:00 +22°C° 0 mm 0 mps 738 mmHg 77%
    03:00 +22°C° 0 mm 0 mps 738 mmHg 81%
    04:00 +21°C° 0 mm 0 mps 738 mmHg 85%
    05:00 +22°C° 0 mm 0 mps 738 mmHg 84%
    06:00 +22°C° 0 mm 0 mps 739 mmHg 83%
    07:00 +23°C° 0 mm 0 mps 739 mmHg 82%
    08:00 +25°C° 0 mm 0 mps 740 mmHg 71%
    09:00 +28°C° 0 mm 0 mps 740 mmHg 60%
    10:00 +33°C° 0 mm 1 mps 740 mmHg 49%
    11:00 +35°C° 0 mm 1 mps 739 mmHg 43%
    12:00 +34°C° 0 mm 0 mps 739 mmHg 38%
    13:00 +36°C° 0 mm 0 mps 738 mmHg 32%
    14:00 +35°C° 0 mm 0 mps 737 mmHg 35%
    15:00 +34°C° 0 mm 0 mps 736 mmHg 38%
    16:00 +32°C° 0 mm 0 mps 735 mmHg 41%
    17:00 +30°C° 0 mm 0 mps 735 mmHg 46%
    18:00 +28°C° 0 mm 0 mps 736 mmHg 52%
    19:00 +26°C° 0 mm 0 mps 736 mmHg 57%
    20:00 +25°C° 0 mm 0 mps 736 mmHg 59%
    21:00 +25°C° 0 mm 0 mps 737 mmHg 61%
    22:00 +24°C° 0 mm 0 mps 737 mmHg 63%
    23:00 +24°C° 0 mm 0 mps 737 mmHg 64%

    21 July, Sunday

    Time Temperature Precipitation Wind Pressure Humidity
    00:00 +24°C° 0 mm 0 mps 737 mmHg 66%
    01:00 +23°C° 0 mm 0 mps 737 mmHg 67%
    02:00 +23°C° 0 mm 0 mps 737 mmHg 69%
    03:00 +23°C° 0 mm 0 mps 737 mmHg 70%
    04:00 +22°C° 0 mm 0 mps 736 mmHg 72%
    05:00 +23°C° 0 mm 0 mps 737 mmHg 72%
    06:00 +23°C° 0 mm 0 mps 738 mmHg 72%
    07:00 +23°C° 0 mm 0 mps 738 mmHg 71%
    08:00 +26°C° 0 mm 0 mps 738 mmHg 62%
    09:00 +31°C° 0 mm 1 mps 739 mmHg 52%
    10:00 +34°C° 0 mm 1 mps 739 mmHg 43%
    11:00 +35°C° 0 mm 1 mps 738 mmHg 40%
    12:00 +35°C° 0 mm 1 mps 737 mmHg 38%
    13:00 +36°C° 0 mm 1 mps 737 mmHg 35%
    14:00 +35°C° 0 mm 1 mps 736 mmHg 39%
    15:00 +34°C° 0 mm 1 mps 735 mmHg 42%
    16:00 +34°C° 0 mm 1 mps 735 mmHg 45%
    17:00 +32°C° 0 mm 1 mps 735 mmHg 49%
    18:00 +31°C° 0 mm 1 mps 735 mmHg 53%
    19:00 +29°C° 0 mm 1 mps 736 mmHg 57%
    20:00 +28°C° 0 mm 1 mps 736 mmHg 60%
    21:00 +27°C° 0 mm 1 mps 736 mmHg 63%
    22:00 +25°C° 0 mm 0 mps 737 mmHg 66%
    23:00 +26°C° 0 mm 1 mps 737 mmHg 68%

    22 July, Monday

    Time Temperature Precipitation Wind Pressure Humidity
    00:00 +26°C° 0 mm 1 mps 737 mmHg 70%
    01:00 +25°C° 0 mm 1 mps 736 mmHg 72%
    02:00 +25°C° 0 mm 1 mps 736 mmHg 73%
    03:00 +25°C° 0 mm 1 mps 736 mmHg 75%
    04:00 +25°C° 0 mm 1 mps 736 mmHg 77%
    05:00 +25°C° 0 mm 1 mps 737 mmHg 76%
    06:00 +25°C° 0 mm 1 mps 738 mmHg 76%
    07:00 +26°C° 0 mm 1 mps 738 mmHg 75%
    08:00 +29°C° 0 mm 1 mps 739 mmHg 65%
    09:00 +31°C° 0 mm 1 mps 739 mmHg 56%
    10:00 +35°C° 0 mm 2 mps 739 mmHg 47%
    11:00 +36°C° 0 mm 2 mps 738 mmHg 44%
    12:00 +35°C° 0 mm 1 mps 738 mmHg 41%
    13:00 +36°C° 0 mm 1 mps 737 mmHg 38%
    14:00 +36°C° 0 mm 1 mps 736 mmHg 39%
    15:00 +35°C° 0 mm 1 mps 736 mmHg 40%
    16:00 +35°C° 0 mm 1 mps 735 mmHg 42%
    17:00 +33°C° 0 mm 1 mps 735 mmHg 48%
    18:00 +31°C° 0 mm 1 mps 736 mmHg 55%
    19:00 +27°C° 0 mm 0 mps 736 mmHg 61%
    20:00 +26°C° 0 mm 0 mps 736 mmHg 63%
    21:00 +26°C° 0 mm 0 mps 737 mmHg 65%
    22:00 +27°C° 0 mm 1 mps 737 mmHg 67%
    23:00 +27°C° 0 mm 1 mps 737 mmHg 69%
    Show more